Location: Maccacari
(45.1333°N, 11.1333°E)
Time: 14:32:14
(UTC+00:00)

S-56A Canister/Altair - Pass Details

Date: 23 January 2021
Orbit: 631 x 2501 km, 38.9° (Epoch: 01 March)

Event Time Altitude Azimuth Distance (km) Brightness Sun altitude
Rises 07:42:32 0° 266° (W) 3,336 10.4 7.8°
Reaches altitude 10° 07:45:37 10° 246° (WSW) 2,626 10.0 8.2°
Maximum altitude 07:49:34 17° 207° (SSW) 2,442 10.3 8.7°
Drops below altitude 10° 07:54:26 10° 169° (S) 3,360 11.8 9.4°
Sets 07:59:12 0° 153° (SSE) 4,742 13.0 10.0°
